User: anonymous   Login
Location: Baix
(44.7118°N, 4.7648°E)
Time: 06:57:36
(UTC+00:00)
Language:

SL-16 R/B - Orbit

View from above orbital plane
View from above orbital plane
View from above satellite
View from above satellite

Ground track
Ground track

The orbit data is extracted from the following two-line orbital elements,

1 28353U 04021B   20293.48091655 +.00000278 +00000-0 +17035-3 0  9998
2 28353 071.0025 039.2015 0004419 169.7945 190.3268 14.14233794844684
Epoch (UTC): 19 October 2020 11:32:31
Eccentricity: 0.0004419
inclination: 71.0025°
perigee height: 842 km
apogee height: 848 km
right ascension of ascending node: 39.2015°
argument of perigee: 169.7945°
revolutions per day: 14.14233794
mean anomaly at epoch: 190.3268°
orbit number at epoch: 84468

The dashed part of the orbit path shows where the satellite is in the earth's shadow,  

DLR